This is the latest recevied weather packets stored in our database for station/object VA3VWX-13. If no packets are shown the sender has not sent any weather packets the latest 10 day(s).
| Time | Temp. | Humidity | Pressure | Rain* | Wind** | Luminosity | Snow |
|---|---|---|---|---|---|---|---|
| 1777448306 | 11.11° C | 79% | 1013 hPa | 0 mm | - | - | - |
| 1777448005 | 11.67° C | 79% | 1012.9 hPa | 0 mm | - | - | - |
| 1777447711 | 11.67° C | 79% | 1012.9 hPa | 0 mm | - | - | - |
| 1777447419 | 11.67° C | 79% | 1012.9 hPa | 0 mm | - | - | - |
| 1777447121 | 11.67° C | 79% | 1013 hPa | 0 mm | - | - | - |
| 1777446819 | 11.67° C | 79% | 1012.8 hPa | 0 mm | - | - | - |
| 1777446506 | 11.67° C | 79% | 1012.8 hPa | 0 mm | - | - | - |
| 1777446224 | 11.67° C | 80% | 1012.7 hPa | 0 mm | - | - | - |
| 1777445904 | 11.67° C | 79% | 1012.8 hPa | 0 mm | - | - | - |
| 1777445611 | 11.67° C | 79% | 1012.9 hPa | 0 mm | - | - | - |
| 1777445318 | 12.22° C | 79% | 1012.9 hPa | 0 mm | - | - | - |
| 1777445026 | 12.22° C | 79% | 1013 hPa | 0 mm | - | - | - |
| 1777444704 | 12.22° C | 79% | 1013 hPa | 0 mm | - | - | - |
| 1777444410 | 12.22° C | 79% | 1013 hPa | 0 mm | - | - | - |
| 1777444117 | 12.22° C | 79% | 1013.1 hPa | 0 mm | - | - | - |
| 1777443816 | 12.22° C | 80% | 1013.1 hPa | 0 mm | - | - | - |
| 1777443523 | 12.22° C | 80% | 1013.1 hPa | 0 mm | - | - | - |
| 1777443211 | 11.67° C | 81% | 1013.1 hPa | 0 mm | - | - | - |
| 1777442909 | 11.67° C | 82% | 1013.1 hPa | 0 mm | - | - | - |
| 1777442626 | 11.11° C | 84% | 1013 hPa | 0 mm | - | - | - |
| 1777442311 | 10.56° C | 84% | 1013.1 hPa | 0 mm | - | - | - |
| 1777442018 | 10.56° C | 83% | 1013 hPa | 0 mm | - | - | - |
| 1777441725 | 10.56° C | 83% | 1013.1 hPa | 0 mm | - | - | - |
| 1777441403 | 10° C | 82% | 1013.2 hPa | 0 mm | - | - | - |
| 1777441109 | 10° C | 81% | 1013.1 hPa | 0 mm | - | - | - |
* Rain latest hour (hover to see other rain measurements)
** Current wind speed in m/s (hover to see current wind gust speed)